Location: San Antonio
(29.4240°N, 98.4930°W)
Time: 08:44:00
(UTC-05:00)

ACS3 Solar Sail - Pass Details

Date: 22 June 2024
Orbit: 992 x 1023 km, 97.4° (Epoch: 11 July)

Event Time Altitude Azimuth Distance (km) Brightness Sun altitude
Exits shadow 00:27:34 21° 264° (W) 2,057 6.5 -34.6°
Maximum altitude 00:27:44 21° 266° (W) 2,056 6.6 -34.6°
Drops below altitude 10° 00:32:19 10° 314° (NW) 2,763 7.8 -35.0°
Sets 00:35:28 0° 330° (NNW) 3,713 8.8 -35.2°
